| time (UTC) | temp F | wind direction | speed MPH | gust MPH | rain 1hr in | rain 24hr in | rain mn in | humidity % | barometer mb |
| 20260831082542 | 62 | 311 | 0.0 | 1.0 | 0.00 | 0.03 | 0.00 | 95 | 1018.8 |
| 20260831082042 | 62 | 312 | 0.0 | 1.0 | 0.00 | 0.03 | 0.00 | 95 | 1018.9 |
| 20260831081542 | 62 | 312 | 0.0 | 0.0 | 0.00 | 0.03 | 0.00 | 95 | 1018.8 |
| 20260831081042 | 62 | 312 | 0.0 | 0.0 | 0.00 | 0.03 | 0.00 | 95 | 1018.8 |
| 20260831080541 | 62 | 311 | 0.0 | 0.0 | 0.00 | 0.03 | 0.00 | 95 | 1018.8 |
| 20260831080042 | 62 | 311 | 0.0 | 0.0 | 0.00 | 0.03 | 0.00 | 95 | 1018.8 |
| 20260831075540 | 62 | 312 | 0.0 | 0.0 | 0.00 | 0.03 | 0.00 | 94 | 1018.7 |
| 20260831075042 | 62 | 311 | 0.0 | 0.0 | 0.00 | 0.03 | 0.00 | 94 | 1018.7 |
| 20260831074540 | 62 | 312 | 0.0 | 3.0 | 0.00 | 0.03 | 0.00 | 94 | 1018.6 |
| 20260831074040 | 62 | 311 | 0.0 | 3.0 | 0.00 | 0.03 | 0.00 | 95 | 1018.4 |
| 20260831073539 | 62 | 340 | 0.0 | 1.0 | 0.00 | 0.03 | 0.00 | 95 | 1018.5 |
| 20260831073039 | 62 | 340 | 0.0 | 1.0 | 0.00 | 0.03 | 0.00 | 95 | 1018.4 |
| 20260831072538 | 62 | 340 | 0.0 | 1.0 | 0.00 | 0.03 | 0.00 | 95 | 1018.4 |
| 20260831072038 | 62 | 111 | 0.0 | 0.0 | 0.00 | 0.03 | 0.00 | 95 | 1018.5 |
| 20260831071538 | 62 | 112 | 0.0 | 1.0 | 0.00 | 0.03 | 0.00 | 95 | 1018.6 |
| 20260831071038 | 62 | 112 | 0.0 | 1.0 | 0.00 | 0.03 | 0.00 | 95 | 1018.5 |
| 20260831070538 | 61 | 322 | 0.0 | 1.0 | 0.00 | 0.03 | 0.00 | 95 | 1018.5 |
| 20260831070038 | 61 | 322 | 0.0 | 1.0 | 0.00 | 0.03 | 0.00 | 95 | 1018.6 |
| 20260831065538 | 61 | 322 | 0.0 | 1.0 | 0.00 | 0.03 | 0.00 | 95 | 1018.6 |
| 20260831065037 | 61 | 321 | 0.0 | 1.0 | 0.00 | 0.03 | 0.00 | 95 | 1018.6 |
| 20260831064538 | 62 | 322 | 0.0 | 0.0 | 0.00 | 0.03 | 0.00 | 94 | 1018.6 |
| 20260831064037 | 62 | 322 | 0.0 | 1.0 | 0.00 | 0.03 | 0.00 | 94 | 1018.6 |
| 20260831063536 | 62 | 322 | 0.0 | 4.0 | 0.00 | 0.03 | 0.00 | 94 | 1018.5 |
| 20260831063036 | 62 | 284 | 0.0 | 3.0 | 0.00 | 0.03 | 0.00 | 94 | 1018.6 |
| 20260831062536 | 62 | 267 | 0.0 | 3.0 | 0.00 | 0.03 | 0.00 | 94 | 1018.6 |
| 20260831062036 | 62 | 260 | 0.0 | 4.0 | 0.00 | 0.03 | 0.00 | 95 | 1018.6 |
| 20260831061540 | 61 | 272 | 2.0 | 4.0 | 0.00 | 0.03 | 0.00 | 95 | 1018.5 |
| 20260831061036 | 61 | 273 | 1.0 | 4.0 | 0.00 | 0.03 | 0.00 | 95 | 1018.5 |
| 20260831060535 | 61 | 297 | 0.0 | 4.0 | 0.00 | 0.03 | 0.00 | 95 | 1018.5 |
| 20260831060036 | 61 | 253 | 0.0 | 3.0 | 0.00 | 0.03 | 0.00 | 95 | 1018.6 |
| 20260831055534 | 61 | 295 | 1.0 | 3.0 | 0.00 | 0.03 | 0.00 | 95 | 1018.6 |
| 20260831055034 | 61 | 304 | 0.0 | 1.0 | 0.00 | 0.03 | 0.00 | 95 | 1018.6 |
| 20260831054534 | 61 | 269 | 0.0 | 2.0 | 0.00 | 0.03 | 0.00 | 95 | 1018.7 |
| 20260831054034 | 61 | 295 | 0.0 | 2.0 | 0.00 | 0.03 | 0.00 | 94 | 1018.6 |
| 20260831053533 | 62 | 269 | 0.0 | 3.0 | 0.00 | 0.03 | 0.00 | 94 | 1018.6 |
| 20260831053032 | 62 | 267 | 0.0 | 4.0 | 0.00 | 0.03 | 0.00 | 94 | 1018.6 |
| 20260831052532 | 62 | 283 | 0.0 | 4.0 | 0.00 | 0.03 | 0.00 | 94 | 1018.6 |
| 20260831052032 | 62 | 297 | 1.0 | 5.0 | 0.00 | 0.03 | 0.00 | 94 | 1018.6 |
| 20260831051536 | 62 | 285 | 1.0 | 5.0 | 0.00 | 0.03 | 0.00 | 94 | 1018.6 |
| 20260831051030 | 62 | 251 | 2.0 | 4.0 | 0.00 | 0.03 | 0.00 | 94 | 1018.6 |
| 20260831050530 | 62 | 293 | 1.0 | 4.0 | 0.00 | 0.03 | 0.00 | 94 | 1018.6 |
| 20260831050030 | 62 | 259 | 0.0 | 4.0 | 0.00 | 0.03 | 0.00 | 94 | 1018.6 |
| 20260831045530 | 62 | 309 | 0.0 | 5.0 | 0.00 | 0.03 | 0.00 | 94 | 1018.7 |
| 20260831045032 | 62 | 255 | 1.0 | 5.0 | 0.00 | 0.03 | 0.00 | 94 | 1018.7 |
| 20260831044529 | 62 | 283 | 2.0 | 7.0 | 0.00 | 0.03 | 0.00 | 94 | 1018.6 |
| 20260831044032 | 62 | 298 | 4.0 | 7.0 | 0.00 | 0.03 | 0.00 | 94 | 1018.6 |
| 20260831043527 | 62 | 295 | 2.0 | 7.0 | 0.00 | 0.03 | 0.00 | 94 | 1018.6 |
| 20260831043027 | 62 | 284 | 4.0 | 7.0 | 0.00 | 0.03 | 0.00 | 94 | 1018.6 |
| 20260831042528 | 62 | 301 | 3.0 | 6.0 | 0.00 | 0.03 | 0.00 | 94 | 1018.6 |
| 20260831042027 | 62 | 308 | 1.0 | 6.0 | 0.00 | 0.03 | 0.00 | 94 | 1018.5 |
| 20260831041529 | 62 | 299 | 2.0 | 6.0 | 0.00 | 0.03 | 0.00 | 94 | 1018.5 |
| 20260831041029 | 62 | 298 | 2.0 | 8.0 | 0.00 | 0.03 | 0.00 | 94 | 1018.5 |
| 20260831040528 | 63 | 302 | 5.0 | 8.0 | 0.00 | 0.03 | 0.00 | 94 | 1018.6 |
| 20260831040024 | 62 | 289 | 3.0 | 6.0 | 0.00 | 0.03 | 0.00 | 94 | 1018.6 |
| 20260831035524 | 62 | 276 | 3.0 | 5.0 | 0.00 | 0.03 | 0.03 | 95 | 1018.6 |
| 20260831035024 | 62 | 283 | 2.0 | 5.0 | 0.00 | 0.03 | 0.03 | 95 | 1018.8 |
| 20260831034524 | 62 | 297 | 2.0 | 4.0 | 0.00 | 0.03 | 0.03 | 95 | 1018.8 |
| 20260831034024 | 62 | 293 | 1.0 | 5.0 | 0.00 | 0.03 | 0.03 | 95 | 1018.9 |
| 20260831033523 | 62 | 283 | 1.0 | 5.0 | 0.00 | 0.03 | 0.03 | 95 | 1018.9 |
| 20260831033032 | 62 | 295 | 2.0 | 5.0 | 0.00 | 0.03 | 0.03 | 94 | 1019.0 |
| 20260831032523 | 62 | 294 | 1.0 | 5.0 | 0.00 | 0.03 | 0.03 | 94 | 1019.0 |
| 20260831032023 | 62 | 291 | 1.0 | 5.0 | 0.00 | 0.03 | 0.03 | 94 | 1019.0 |
| 20260831031528 | 63 | 262 | 1.0 | 8.0 | 0.00 | 0.03 | 0.03 | 94 | 1019.0 |
| 20260831031022 | 63 | 303 | 5.0 | 8.0 | 0.00 | 0.03 | 0.03 | 93 | 1019.1 |
| 20260831030522 | 63 | 288 | 3.0 | 6.0 | 0.00 | 0.03 | 0.03 | 93 | 1019.0 |
| 20260831030023 | 63 | 311 | 1.0 | 4.0 | 0.00 | 0.03 | 0.03 | 93 | 1019.0 |
| 20260831025522 | 63 | 289 | 1.0 | 5.0 | 0.00 | 0.03 | 0.03 | 94 | 1018.9 |
| 20260831025021 | 63 | 294 | 2.0 | 5.0 | 0.00 | 0.03 | 0.03 | 94 | 1018.9 |
| 20260831024538 | 63 | 285 | 1.0 | 4.0 | 0.00 | 0.03 | 0.03 | 94 | 1018.9 |
| 20260831024021 | 63 | 276 | 0.0 | 4.0 | 0.00 | 0.03 | 0.03 | 94 | 1018.8 |
| 20260831023520 | 63 | 294 | 2.0 | 6.0 | 0.00 | 0.03 | 0.03 | 94 | 1018.9 |
| 20260831023020 | 62 | 296 | 2.0 | 6.0 | 0.00 | 0.03 | 0.03 | 94 | 1018.8 |
| 20260831022520 | 63 | 294 | 2.0 | 6.0 | 0.00 | 0.03 | 0.03 | 94 | 1018.8 |
| 20260831022020 | 62 | 302 | 3.0 | 6.0 | 0.00 | 0.03 | 0.03 | 94 | 1018.6 |
| 20260831021521 | 62 | 291 | 2.0 | 7.0 | 0.00 | 0.03 | 0.03 | 94 | 1018.6 |
| 20260831021023 | 62 | 298 | 3.0 | 7.0 | 0.00 | 0.03 | 0.03 | 94 | 1018.6 |
| 20260831020520 | 62 | 302 | 1.0 | 6.0 | 0.00 | 0.03 | 0.03 | 94 | 1018.5 |
| 20260831020020 | 62 | 306 | 3.0 | 6.0 | 0.00 | 0.03 | 0.03 | 94 | 1018.5 |
| 20260831015523 | 62 | 276 | 1.0 | 4.0 | 0.00 | 0.03 | 0.03 | 94 | 1018.6 |
| 20260831015018 | 62 | 303 | 1.0 | 6.0 | 0.00 | 0.03 | 0.03 | 94 | 1018.7 |
| 20260831014533 | 62 | 267 | 2.0 | 6.0 | 0.00 | 0.03 | 0.03 | 94 | 1018.7 |
| 20260831014018 | 62 | 288 | 2.0 | 7.0 | 0.00 | 0.03 | 0.03 | 94 | 1018.6 |
| 20260831013520 | 63 | 297 | 4.0 | 7.0 | 0.00 | 0.03 | 0.03 | 94 | 1018.7 |
| 20260831013021 | 63 | 278 | 4.0 | 9.0 | 0.00 | 0.03 | 0.03 | 93 | 1018.7 |
| 20260831012520 | 63 | 294 | 5.0 | 9.0 | 0.00 | 0.03 | 0.03 | 93 | 1018.7 |
| 20260831012118 | 63 | 276 | 4.0 | 9.0 | 0.00 | 0.03 | 0.03 | 93 | 1018.7 |
| 20260831011518 | 63 | 287 | 3.0 | 7.0 | 0.00 | 0.03 | 0.03 | 93 | 1018.7 |
| 20260831011017 | 63 | 312 | 3.0 | 7.0 | 0.00 | 0.03 | 0.03 | 93 | 1018.6 |
| 20260831010517 | 63 | 298 | 2.0 | 7.0 | 0.00 | 0.03 | 0.03 | 93 | 1018.5 |
| 20260831010016 | 63 | 293 | 4.0 | 8.0 | 0.00 | 0.03 | 0.03 | 92 | 1018.4 |
| 20260831005516 | 63 | 281 | 5.0 | 8.0 | 0.00 | 0.03 | 0.03 | 92 | 1018.3 |
| 20260831005018 | 63 | 298 | 4.0 | 10.0 | 0.00 | 0.03 | 0.03 | 92 | 1018.2 |
| 20260831004518 | 63 | 304 | 4.0 | 10.0 | 0.00 | 0.03 | 0.03 | 92 | 1018.1 |
| 20260831004019 | 63 | 291 | 5.0 | 9.0 | 0.00 | 0.03 | 0.03 | 92 | 1018.0 |
| 20260831003517 | 63 | 293 | 5.0 | 10.0 | 0.00 | 0.03 | 0.03 | 91 | 1017.8 |
| 20260831003015 | 63 | 271 | 4.0 | 10.0 | 0.00 | 0.03 | 0.03 | 92 | 1017.8 |
| 20260831002522 | 63 | 283 | 6.0 | 9.0 | 0.00 | 0.03 | 0.03 | 92 | 1017.7 |
| 20260831002021 | 63 | 300 | 4.0 | 8.0 | 0.00 | 0.03 | 0.03 | 92 | 1017.5 |
| 20260831001511 | 63 | 283 | 3.0 | 7.0 | 0.00 | 0.03 | 0.03 | 92 | 1017.4 |
| 20260831001018 | 63 | 283 | 2.0 | 7.0 | 0.00 | 0.03 | 0.03 | 92 | 1017.4 |
| 20260831000504 | 63 | 269 | 4.0 | 9.0 | 0.00 | 0.03 | 0.03 | 92 | 1017.3 |
| 20260831000012 | 63 | 298 | 5.0 | 8.0 | 0.00 | 0.03 | 0.03 | 92 | 1017.2 |
| 20260830235520 | 63 | 281 | 4.0 | 7.0 | 0.00 | 0.03 | 0.03 | 92 | 1017.1 |
| 20260830235011 | 63 | 276 | 4.0 | 7.0 | 0.00 | 0.03 | 0.03 | 92 | 1017.0 |
| 20260830234518 | 63 | 269 | 3.0 | 7.0 | 0.00 | 0.03 | 0.03 | 92 | 1017.1 |
| 20260830234024 | 63 | 307 | 3.0 | 7.0 | 0.00 | 0.03 | 0.03 | 92 | 1017.0 |
| 20260830233510 | 63 | 306 | 5.0 | 7.0 | 0.00 | 0.03 | 0.03 | 93 | 1016.9 |
| 20260830233018 | 63 | 296 | 4.0 | 8.0 | 0.00 | 0.03 | 0.03 | 93 | 1017.0 |
| 20260830232530 | 63 | 277 | 4.0 | 8.0 | 0.00 | 0.03 | 0.03 | 94 | 1017.0 |
| 20260830232012 | 63 | 287 | 2.0 | 5.0 | 0.00 | 0.03 | 0.03 | 94 | 1017.0 |
| 20260830231530 | 62 | 305 | 2.0 | 6.0 | 0.01 | 0.03 | 0.03 | 95 | 1016.9 |
| 20260830231008 | 62 | 283 | 2.0 | 4.0 | 0.01 | 0.03 | 0.03 | 95 | 1017.0 |
| 20260830230518 | 62 | 288 | 0.0 | 2.0 | 0.02 | 0.03 | 0.03 | 95 | 1016.9 |
| 20260830230020 | 62 | 280 | 0.0 | 1.0 | 0.02 | 0.03 | 0.03 | 95 | 1016.9 |
| 20260830225528 | 63 | 280 | 0.0 | 0.0 | 0.02 | 0.03 | 0.03 | 95 | 1017.0 |
| 20260830225011 | 62 | 280 | 0.0 | 0.0 | 0.03 | 0.03 | 0.03 | 95 | 1017.0 |
| 20260830224520 | 63 | 280 | 0.0 | 0.0 | 0.03 | 0.03 | 0.03 | 95 | 1017.1 |
| 20260830224022 | 63 | 280 | 0.0 | 2.0 | 0.03 | 0.03 | 0.03 | 95 | 1017.1 |
| 20260830223526 | 63 | 280 | 0.0 | 2.0 | 0.03 | 0.03 | 0.03 | 95 | 1017.3 |
| 20260830223012 | 63 | 280 | 0.0 | 1.0 | 0.03 | 0.03 | 0.03 | 94 | 1017.2 |
| 20260830222516 | 63 | 280 | 0.0 | 2.0 | 0.03 | 0.03 | 0.03 | 94 | 1017.3 |
| 20260830222020 | 63 | 287 | 0.0 | 2.0 | 0.02 | 0.02 | 0.02 | 94 | 1017.5 |
| 20260830221526 | 63 | 289 | 0.0 | 2.0 | 0.02 | 0.02 | 0.02 | 94 | 1017.4 |
| 20260830221009 | 63 | 278 | 0.0 | 2.0 | 0.02 | 0.02 | 0.02 | 93 | 1017.5 |
| 20260830220522 | 63 | 289 | 0.0 | 2.0 | 0.01 | 0.01 | 0.01 | 93 | 1017.4 |
| 20260830220025 | 63 | 287 | 0.0 | 5.0 | 0.01 | 0.01 | 0.01 | 92 | 1017.5 |
| 20260830215528 | 63 | 280 | 1.0 | 6.0 | 0.01 | 0.01 | 0.01 | 92 | 1017.4 |
| 20260830215015 | 64 | 283 | 3.0 | 9.0 | 0.00 | 0.00 | 0.00 | 91 | 1017.5 |
| 20260830214522 | 64 | 271 | 5.0 | 10.0 | 0.00 | 0.00 | 0.00 | 91 | 1017.5 |
| 20260830214024 | 64 | 262 | 3.0 | 12.0 | 0.00 | 0.00 | 0.00 | 89 | 1017.5 |
| 20260830213515 | 65 | 280 | 6.0 | 16.0 | 0.00 | 0.00 | 0.00 | 87 | 1017.5 |
| 20260830213017 | 66 | 250 | 7.0 | 13.0 | 0.00 | 0.00 | 0.00 | 85 | 1017.4 |
| 20260830212527 | 66 | 295 | 4.0 | 12.0 | 0.00 | 0.00 | 0.00 | 84 | 1017.1 |
| 20260830212013 | 67 | 308 | 6.0 | 10.0 | 0.00 | 0.00 | 0.00 | 81 | 1017.0 |
| 20260830211518 | 68 | 263 | 4.0 | 10.0 | 0.00 | 0.00 | 0.00 | 79 | 1017.0 |
| 20260830211025 | 68 | 296 | 6.0 | 9.0 | 0.00 | 0.00 | 0.00 | 78 | 1017.1 |
| 20260830210513 | 69 | 273 | 4.0 | 8.0 | 0.00 | 0.00 | 0.00 | 77 | 1017.1 |
| 20260830210016 | 69 | 283 | 4.0 | 8.0 | 0.00 | 0.00 | 0.00 | 77 | 1017.0 |
| 20260830205521 | 69 | 288 | 2.0 | 5.0 | 0.00 | 0.00 | 0.00 | 78 | 1016.9 |
| 20260830205008 | 69 | 301 | 3.0 | 5.0 | 0.00 | 0.00 | 0.00 | 77 | 1016.9 |
| 20260830204513 | 69 | 294 | 2.0 | 4.0 | 0.00 | 0.00 | 0.00 | 77 | 1016.9 |
| 20260830204019 | 69 | 288 | 2.0 | 4.0 | 0.00 | 0.00 | 0.00 | 76 | 1016.9 |
| 20260830203509 | 69 | 292 | 1.0 | 4.0 | 0.00 | 0.00 | 0.00 | 76 | 1016.9 |
| 20260830203028 | 69 | 280 | 1.0 | 4.0 | 0.00 | 0.00 | 0.00 | 76 | 1016.8 |
| 20260830202523 | 70 | 282 | 1.0 | 4.0 | 0.00 | 0.00 | 0.00 | 77 | 1016.8 |
| 20260830202011 | 70 | 309 | 0.0 | 4.0 | 0.00 | 0.00 | 0.00 | 79 | 1016.8 |
| 20260830201535 | 70 | 280 | 0.0 | 5.0 | 0.00 | 0.00 | 0.00 | 78 | 1016.8 |
| 20260830201022 | 70 | 293 | 1.0 | 5.0 | 0.00 | 0.00 | 0.00 | 77 | 1016.8 |
| 20260830200511 | 70 | 302 | 0.0 | 5.0 | 0.00 | 0.00 | 0.00 | 76 | 1016.7 |
| 20260830200020 | 70 | 280 | 2.0 | 5.0 | 0.00 | 0.00 | 0.00 | 75 | 1016.7 |
| 20260830195525 | 70 | 287 | 2.0 | 5.0 | 0.00 | 0.00 | 0.00 | 75 | 1016.7 |
| 20260830195008 | 70 | 284 | 3.0 | 5.0 | 0.00 | 0.00 | 0.00 | 76 | 1016.8 |
| 20260830194517 | 70 | 293 | 2.0 | 7.0 | 0.00 | 0.00 | 0.00 | 76 | 1016.8 |
| 20260830194022 | 70 | 288 | 2.0 | 7.0 | 0.00 | 0.00 | 0.00 | 75 | 1016.7 |
| 20260830193509 | 70 | 296 | 3.0 | 7.0 | 0.00 | 0.00 | 0.00 | 74 | 1016.8 |
| 20260830193017 | 71 | 301 | 2.0 | 7.0 | 0.00 | 0.00 | 0.00 | 74 | 1016.8 |
| 20260830192524 | 71 | 307 | 3.0 | 6.0 | 0.00 | 0.00 | 0.00 | 75 | 1016.8 |
| 20260830192013 | 71 | 290 | 3.0 | 6.0 | 0.00 | 0.00 | 0.00 | 74 | 1016.9 |
| 20260830191522 | 71 | 293 | 2.0 | 5.0 | 0.00 | 0.00 | 0.00 | 74 | 1016.9 |
| 20260830191022 | 71 | 271 | 3.0 | 5.0 | 0.00 | 0.00 | 0.00 | 73 | 1017.1 |
| 20260830190509 | 71 | 262 | 2.0 | 5.0 | 0.00 | 0.00 | 0.00 | 75 | 1017.2 |
| 20260830190028 | 71 | 278 | 3.0 | 5.0 | 0.00 | 0.00 | 0.00 | 73 | 1017.2 |
| 20260830185519 | 71 | 301 | 3.0 | 5.0 | 0.00 | 0.00 | 0.00 | 74 | 1017.3 |
| 20260830185019 | 71 | 305 | 4.0 | 7.0 | 0.00 | 0.00 | 0.00 | 73 | 1017.4 |
| 20260830184507 | 71 | 274 | 4.0 | 6.0 | 0.00 | 0.00 | 0.00 | 73 | 1017.4 |
| 20260830184015 | 71 | 296 | 3.0 | 7.0 | 0.00 | 0.00 | 0.00 | 74 | 1017.4 |
| 20260830183517 | 71 | 282 | 3.0 | 7.0 | 0.00 | 0.00 | 0.00 | 74 | 1017.4 |
| 20260830183024 | 71 | 305 | 3.0 | 9.0 | 0.00 | 0.00 | 0.00 | 74 | 1017.4 |
| 20260830182513 | 71 | 290 | 3.0 | 9.0 | 0.00 | 0.00 | 0.00 | 72 | 1017.5 |
| 20260830182019 | 71 | 295 | 3.0 | 9.0 | 0.00 | 0.00 | 0.00 | 75 | 1017.5 |
| 20260830181506 | 71 | 294 | 5.0 | 9.0 | 0.00 | 0.00 | 0.00 | 76 | 1017.6 |
| 20260830181014 | 71 | 274 | 5.0 | 9.0 | 0.00 | 0.00 | 0.00 | 76 | 1017.5 |
| 20260830180523 | 71 | 264 | 6.0 | 9.0 | 0.00 | 0.00 | 0.00 | 72 | 1017.6 |
| 20260830180022 | 71 | 296 | 5.0 | 10.0 | 0.00 | 0.00 | 0.00 | 74 | 1017.6 |
| 20260830175510 | 71 | 295 | 4.0 | 10.0 | 0.00 | 0.00 | 0.00 | 72 | 1017.6 |
| 20260830175017 | 71 | 290 | 4.0 | 10.0 | 0.00 | 0.00 | 0.00 | 75 | 1017.6 |
| 20260830174525 | 71 | 274 | 4.0 | 9.0 | 0.00 | 0.00 | 0.00 | 73 | 1017.6 |
| 20260830174007 | 71 | 271 | 4.0 | 10.0 | 0.00 | 0.00 | 0.00 | 75 | 1017.6 |
| 20260830173518 | 71 | 297 | 4.0 | 10.0 | 0.00 | 0.00 | 0.00 | 75 | 1017.7 |
| 20260830173032 | 70 | 269 | 4.0 | 9.0 | 0.00 | 0.00 | 0.00 | 74 | 1017.7 |
| 20260830172508 | 70 | 314 | 5.0 | 9.0 | 0.00 | 0.00 | 0.00 | 74 | 1017.8 |
| 20260830172015 | 70 | 250 | 4.0 | 8.0 | 0.00 | 0.00 | 0.00 | 75 | 1017.9 |
| 20260830171518 | 70 | 296 | 3.0 | 6.0 | 0.00 | 0.00 | 0.00 | 76 | 1017.9 |
| 20260830171003 | 70 | 295 | 4.0 | 7.0 | 0.00 | 0.00 | 0.00 | 74 | 1017.8 |
| 20260830170510 | 70 | 323 | 3.0 | 8.0 | 0.00 | 0.00 | 0.00 | 75 | 1018.0 |
| 20260830170016 | 70 | 296 | 4.0 | 9.0 | 0.00 | 0.00 | 0.00 | 77 | 1018.1 |
| 20260830165509 | 70 | 284 | 5.0 | 9.0 | 0.00 | 0.00 | 0.00 | 76 | 1018.1 |
| 20260830165015 | 70 | 266 | 3.0 | 11.0 | 0.00 | 0.00 | 0.00 | 76 | 1018.2 |
| 20260830164531 | 70 | 261 | 5.0 | 11.0 | 0.00 | 0.00 | 0.00 | 75 | 1018.2 |
| 20260830164022 | 70 | 301 | 4.0 | 10.0 | 0.00 | 0.00 | 0.00 | 75 | 1018.2 |
| 20260830163512 | 70 | 261 | 4.0 | 14.0 | 0.00 | 0.00 | 0.00 | 75 | 1018.2 |
| 20260830163112 | 70 | 296 | 5.0 | 14.0 | 0.00 | 0.00 | 0.00 | 74 | 1018.2 |
| 20260830162518 | 70 | 284 | 4.0 | 11.0 | 0.00 | 0.00 | 0.00 | 73 | 1018.3 |
| 20260830162021 | 70 | 291 | 6.0 | 11.0 | 0.00 | 0.00 | 0.00 | 73 | 1018.3 |
| 20260830161509 | 70 | 293 | 4.0 | 12.0 | 0.00 | 0.00 | 0.00 | 73 | 1018.4 |
| 20260830161015 | 70 | 250 | 7.0 | 12.0 | 0.00 | 0.00 | 0.00 | 72 | 1018.4 |
| 20260830160523 | 70 | 302 | 6.0 | 12.0 | 0.00 | 0.00 | 0.00 | 73 | 1018.5 |
| 20260830160013 | 70 | 291 | 2.0 | 9.0 | 0.00 | 0.00 | 0.00 | 73 | 1018.5 |
| 20260830155517 | 70 | 273 | 3.0 | 9.0 | 0.00 | 0.00 | 0.00 | 72 | 1018.7 |
| 20260830155019 | 70 | 282 | 1.0 | 8.0 | 0.00 | 0.00 | 0.00 | 75 | 1018.7 |
| 20260830154509 | 70 | 298 | 3.0 | 8.0 | 0.00 | 0.00 | 0.00 | 73 | 1018.7 |
| 20260830154015 | 70 | 290 | 3.0 | 12.0 | 0.00 | 0.00 | 0.00 | 73 | 1018.7 |
| 20260830153522 | 70 | 303 | 4.0 | 7.0 | 0.00 | 0.00 | 0.00 | 72 | 1018.8 |
| 20260830153010 | 69 | 288 | 4.0 | 8.0 | 0.00 | 0.00 | 0.00 | 72 | 1018.9 |
| 20260830152520 | 69 | 308 | 4.0 | 9.0 | 0.00 | 0.00 | 0.00 | 72 | 1018.8 |
| 20260830152022 | 69 | 314 | 3.0 | 9.0 | 0.00 | 0.00 | 0.00 | 71 | 1018.9 |
| 20260830151519 | 69 | 310 | 2.0 | 8.0 | 0.00 | 0.00 | 0.00 | 72 | 1019.0 |
| 20260830151015 | 69 | 314 | 3.0 | 8.0 | 0.00 | 0.00 | 0.00 | 71 | 1019.0 |
| 20260830150519 | 69 | 298 | 3.0 | 9.0 | 0.00 | 0.00 | 0.00 | 71 | 1019.1 |
| 20260830150020 | 69 | 290 | 4.0 | 9.0 | 0.00 | 0.00 | 0.00 | 71 | 1019.2 |
| 20260830145508 | 68 | 311 | 5.0 | 11.0 | 0.00 | 0.00 | 0.00 | 71 | 1019.2 |
| 20260830145014 | 68 | 297 | 6.0 | 11.0 | 0.00 | 0.00 | 0.00 | 70 | 1019.2 |
| 20260830144519 | 68 | 300 | 5.0 | 11.0 | 0.00 | 0.00 | 0.00 | 71 | 1019.2 |
| 20260830144019 | 68 | 307 | 4.0 | 11.0 | 0.00 | 0.00 | 0.00 | 70 | 1019.0 |
| 20260830143510 | 68 | 283 | 6.0 | 12.0 | 0.00 | 0.00 | 0.00 | 70 | 1019.0 |
| 20260830143015 | 68 | 298 | 6.0 | 12.0 | 0.00 | 0.00 | 0.00 | 71 | 1019.1 |
| 20260830142524 | 68 | 280 | 5.0 | 11.0 | 0.00 | 0.00 | 0.00 | 69 | 1019.0 |
| 20260830142013 | 67 | 301 | 3.0 | 10.0 | 0.00 | 0.00 | 0.00 | 71 | 1018.9 |
| 20260830141519 | 67 | 296 | 4.0 | 9.0 | 0.00 | 0.00 | 0.00 | 70 | 1019.1 |
| 20260830141021 | 67 | 261 | 5.0 | 9.0 | 0.00 | 0.00 | 0.00 | 69 | 1019.1 |
| 20260830140509 | 67 | 300 | 4.0 | 7.0 | 0.00 | 0.00 | 0.00 | 70 | 1019.1 |
| 20260830140013 | 67 | 303 | 3.0 | 9.0 | 0.00 | 0.00 | 0.00 | 68 | 1019.1 |
| 20260830135519 | 67 | 289 | 5.0 | 9.0 | 0.00 | 0.00 | 0.00 | 68 | 1019.3 |
| 20260830135022 | 68 | 314 | 4.0 | 10.0 | 0.00 | 0.00 | 0.00 | 67 | 1019.3 |
| 20260830134514 | 68 | 295 | 6.0 | 10.0 | 0.00 | 0.00 | 0.00 | 66 | 1019.3 |
| 20260830134014 | 68 | 293 | 5.0 | 10.0 | 0.00 | 0.00 | 0.00 | 65 | 1019.3 |
| 20260830133503 | 67 | 293 | 4.0 | 10.0 | 0.00 | 0.00 | 0.00 | 66 | 1019.2 |
| 20260830133010 | 67 | 290 | 4.0 | 10.0 | 0.00 | 0.00 | 0.00 | 66 | 1019.4 |
| 20260830132522 | 67 | 301 | 2.0 | 8.0 | 0.00 | 0.00 | 0.00 | 66 | 1019.4 |
| 20260830132012 | 67 | 297 | 3.0 | 8.0 | 0.00 | 0.00 | 0.00 | 66 | 1019.5 |
| 20260830131520 | 67 | 303 | 2.0 | 8.0 | 0.00 | 0.00 | 0.00 | 66 | 1019.6 |
| 20260830131019 | 67 | 290 | 4.0 | 9.0 | 0.00 | 0.00 | 0.00 | 65 | 1019.6 |
| 20260830130509 | 67 | 294 | 4.0 | 11.0 | 0.00 | 0.00 | 0.00 | 66 | 1019.5 |
| 20260830130013 | 67 | 300 | 4.0 | 11.0 | 0.00 | 0.00 | 0.00 | 65 | 1019.5 |
| 20260830125523 | 67 | 314 | 4.0 | 8.0 | 0.00 | 0.00 | 0.00 | 66 | 1019.5 |
| 20260830125008 | 67 | 280 | 4.0 | 9.0 | 0.00 | 0.00 | 0.00 | 65 | 1019.6 |
| 20260830124522 | 67 | 300 | 4.0 | 9.0 | 0.00 | 0.00 | 0.00 | 65 | 1019.7 |
| 20260830123519 | 67 | 298 | 4.0 | 12.0 | 0.00 | 0.00 | 0.00 | 65 | 1019.9 |
| 20260830123019 | 67 | 298 | 4.0 | 12.0 | 0.00 | 0.00 | 0.00 | 64 | 1019.9 |
| 20260830122518 | 67 | 298 | 5.0 | 8.0 | 0.00 | 0.00 | 0.00 | 64 | 1019.9 |
| 20260830122017 | 67 | 285 | 4.0 | 12.0 | 0.00 | 0.00 | 0.00 | 64 | 1019.8 |
| 20260830121518 | 67 | 262 | 6.0 | 12.0 | 0.00 | 0.00 | 0.00 | 63 | 1019.8 |
| 20260830121017 | 67 | 287 | 5.0 | 10.0 | 0.00 | 0.00 | 0.00 | 63 | 1019.8 |
| 20260830120516 | 67 | 289 | 5.0 | 14.0 | 0.00 | 0.00 | 0.00 | 64 | 1019.8 |
| 20260830120017 | 67 | 296 | 7.0 | 15.0 | 0.00 | 0.00 | 0.00 | 63 | 1019.9 |
| 20260830115514 | 66 | 273 | 7.0 | 15.0 | 0.00 | 0.00 | 0.00 | 64 | 1019.8 |
| 20260830115014 | 66 | 253 | 4.0 | 12.0 | 0.00 | 0.00 | 0.00 | 65 | 1019.9 |
| 20260830114517 | 66 | 290 | 5.0 | 12.0 | 0.00 | 0.00 | 0.00 | 64 | 1020.1 |
| 20260830114016 | 66 | 312 | 6.0 | 10.0 | 0.00 | 0.00 | 0.00 | 64 | 1020.2 |
| 20260830113516 | 66 | 309 | 6.0 | 11.0 | 0.00 | 0.00 | 0.00 | 64 | 1020.1 |
| 20260830113012 | 66 | 282 | 5.0 | 15.0 | 0.00 | 0.00 | 0.00 | 63 | 1020.2 |
| 20260830112513 | 66 | 300 | 5.0 | 12.0 | 0.00 | 0.00 | 0.00 | 65 | 1020.1 |
| 20260830112012 | 66 | 273 | 4.0 | 11.0 | 0.00 | 0.00 | 0.00 | 66 | 1020.1 |
| 20260830111512 | 66 | 298 | 4.0 | 13.0 | 0.00 | 0.00 | 0.00 | 65 | 1020.2 |
| 20260830111011 | 66 | 300 | 6.0 | 13.0 | 0.00 | 0.00 | 0.00 | 65 | 1020.1 |
| 20260830110511 | 66 | 256 | 4.0 | 10.0 | 0.00 | 0.00 | 0.00 | 66 | 1020.1 |
| 20260830110013 | 66 | 280 | 4.0 | 9.0 | 0.00 | 0.00 | 0.00 | 65 | 1020.0 |
| 20260830105510 | 66 | 287 | 4.0 | 10.0 | 0.00 | 0.00 | 0.00 | 64 | 1020.1 |
| 20260830105011 | 66 | 283 | 6.0 | 10.0 | 0.00 | 0.00 | 0.00 | 65 | 1020.1 |
| 20260830104509 | 66 | 294 | 6.0 | 11.0 | 0.00 | 0.00 | 0.00 | 65 | 1020.1 |
| 20260830104009 | 66 | 278 | 4.0 | 9.0 | 0.00 | 0.00 | 0.00 | 66 | 1020.1 |
| 20260830103509 | 66 | 298 | 6.0 | 10.0 | 0.00 | 0.00 | 0.00 | 65 | 1020.1 |
| 20260830103009 | 66 | 269 | 5.0 | 13.0 | 0.00 | 0.00 | 0.00 | 66 | 1020.1 |
| 20260830102509 | 66 | 316 | 6.0 | 12.0 | 0.00 | 0.00 | 0.00 | 66 | 1020.1 |
| 20260830102008 | 66 | 302 | 7.0 | 12.0 | 0.00 | 0.00 | 0.00 | 66 | 1020.1 |
| 20260830101507 | 66 | 295 | 6.0 | 11.0 | 0.00 | 0.00 | 0.00 | 67 | 1020.1 |
| 20260830101007 | 66 | 276 | 6.0 | 13.0 | 0.00 | 0.00 | 0.00 | 66 | 1020.2 |
| 20260830100509 | 66 | 298 | 5.0 | 13.0 | 0.00 | 0.00 | 0.00 | 67 | 1020.3 |
| 20260830100007 | 66 | 280 | 7.0 | 11.0 | 0.00 | 0.00 | 0.00 | 66 | 1020.3 |
| 20260830095506 | 66 | 263 | 6.0 | 12.0 | 0.00 | 0.00 | 0.00 | 66 | 1020.3 |
| 20260830095007 | 66 | 285 | 6.0 | 15.0 | 0.00 | 0.00 | 0.00 | 66 | 1020.3 |
| 20260830094505 | 66 | 263 | 9.0 | 13.0 | 0.00 | 0.00 | 0.00 | 65 | 1020.4 |
| 20260830094004 | 66 | 307 | 6.0 | 14.0 | 0.00 | 0.00 | 0.00 | 66 | 1020.3 |
| 20260830093505 | 66 | 291 | 6.0 | 14.0 | 0.00 | 0.00 | 0.00 | 66 | 1020.2 |
| 20260830093004 | 66 | 306 | 6.0 | 11.0 | 0.00 | 0.00 | 0.00 | 65 | 1020.1 |
| 20260830092504 | 66 | 295 | 5.0 | 12.0 | 0.00 | 0.00 | 0.00 | 66 | 1020.2 |
| 20260830092004 | 66 | 264 | 7.0 | 12.0 | 0.00 | 0.00 | 0.00 | 65 | 1020.1 |
| 20260830091502 | 66 | 301 | 7.0 | 12.0 | 0.00 | 0.00 | 0.00 | 65 | 1020.3 |
| 20260830091003 | 66 | 295 | 6.0 | 14.0 | 0.00 | 0.00 | 0.00 | 65 | 1020.3 |
| 20260830090503 | 66 | 274 | 7.0 | 14.0 | 0.00 | 0.00 | 0.00 | 65 | 1020.3 |
| 20260830090005 | 66 | 290 | 7.0 | 12.0 | 0.00 | 0.00 | 0.00 | 65 | 1020.3 |
| 20260830085501 | 66 | 300 | 5.0 | 12.0 | 0.00 | 0.00 | 0.00 | 65 | 1020.3 |
| 20260830085100 | 66 | 266 | 5.0 | 11.0 | 0.00 | 0.00 | 0.00 | 65 | 1020.3 |
| 20260830084606 | 66 | 255 | 3.0 | 8.0 | 0.00 | 0.00 | 0.00 | 66 | 1020.4 |
| 20260830084059 | 66 | 267 | 3.0 | 12.0 | 0.00 | 0.00 | 0.00 | 65 | 1020.5 |
| 20260830083559 | 66 | 259 | 4.0 | 12.0 | 0.00 | 0.00 | 0.00 | 65 | 1020.5 |
| 20260830083110 | 66 | 297 | 5.0 | 12.0 | 0.00 | 0.00 | 0.00 | 65 | 1020.5 |
| 20260830082558 | 66 | 295 | 6.0 | 13.0 | 0.00 | 0.00 | 0.00 | 66 | 1020.6 |